Flag for Canada Weather past 2 weeks in Longueuil, Quebec, Canada

Now
51 °F

Cool.


Feels Like: 51 °F
Forecast: 47 / 62 °F
Wind: 3 mph from Southwest

Location: Mc Tavish

Current Time: Sep 22, 2014 at 11:10:04 AM

Latest Report: Sep 22, 2014 at 10:00 AM


Visibility: N/A

Pressure: 29.72 "Hg

Humidity: 73%

Dew point: 43 °F

Location of LongueuilLocation

Historic Weather in Longueuil — Graph

°F

Longueuil temperature yesterday

Maximum temperature yesterday: 71 °F (at 2:00 PM)
Minimum temperature yesterday: 62 °F (at 5:00 AM)
Average temperature yesterday: 66 °F

Past Weeks' High & Low Weather Summary

 TemperatureHumidityPressure
High76 °F (Sep 8, 4:00 PM)98% (Sep 13, 7:00 PM)30.42 "Hg (Sep 13, 7:00 PM)
Low39 °F (Sep 19, 5:00 AM)29% (Sep 19, 3:00 PM)29.47 "Hg (Sep 22, 12:00 AM)
Average57 °F69%30.05 "Hg
* Reported Sep 7 10:00 AM — Sep 22 10:00 AM, Longueuil, Weather by CustomWeather, © 2014

Note: Actual official high and low records may vary slightly from our data, if they occured in-between our weather recording intervals... More about our weather records

Advertising

Longueuil weather history for previous 24 hours

 ConditionsComfort  
Time TempWeatherWind HumidityBarometerVisibility
10:00 AM
Sep 22
51 °FCool.3 mph73%29.72 "HgN/A
9:00 AM52 °FCool.3 mph68%29.68 "HgN/A
8:00 AM49 °FCool.3 mph85%29.64 "HgN/A
7:00 AM51 °FCool.5 mph83%29.60 "HgN/A
6:00 AM51 °FCool.7 mph86%29.55 "HgN/A
5:00 AM53 °FCool.6 mph85%29.52 "HgN/A
4:00 AM55 °FCool.5 mph87%29.50 "HgN/A
3:00 AM54 °FCool.5 mph97%29.48 "HgN/A
2:00 AM59 °FCool.7 mph91%29.47 "HgN/A
1:00 AM60 °FCool.7 mph97%29.49 "HgN/A
12:00 AM65 °FMild.5 mph85%29.47 "HgN/A
11:00 PM
Sep 21
67 °FMild.6 mph76%29.49 "HgN/A
10:00 PM68 °FMild.5 mph65%29.50 "HgN/A
9:00 PM69 °FMild.5 mph71%29.51 "HgN/A
8:00 PM70 °FMild.6 mph71%29.51 "HgN/A
7:00 PM69 °FMild.2 mph80%29.50 "HgN/A
6:00 PM71 °FMild.1 mph76%29.52 "HgN/A
5:00 PM71 °FMild.2 mph79%29.53 "HgN/A
4:00 PM69 °FMild.2 mph82%29.54 "HgN/A
3:00 PM67 °FMild.5 mph83%29.56 "HgN/A
2:00 PM71 °FMild.5 mph70%29.58 "HgN/A
1:00 PM71 °FMild.2 mph71%29.63 "HgN/A
12:00 PM69 °FMild.2 mph74%29.65 "HgN/A
11:00 AM64 °FMild.3 mph84%29.69 "HgN/A
Weather by CustomWeather, © 2014

See weather overviewHow to use our weather pages